Location: Unspecified
(35.6961°N, 0.0000°E)
Time: 18:12:55
(UTC+00:00)

CAS-4B - Visible Passes

Search period start: 24 June 2019 00:00
Search period end: 04 July 2019 00:00
Orbit: 529 x 546 km, 43.0° (Epoch: 24 June)

Date Brightness Start Highest point End Pass type
(mag) Time Alt. Az. Time Alt. Az. Time Alt. Az.
24 Jun ? 00:41:17 28° NNE 00:41:17 28° NNE 00:44:12 10° ENE visible
24 Jun ? 02:17:31 10° NW 02:21:20 34° NNE 02:25:09 10° ENE visible
24 Jun ? 03:57:38 10° WNW 04:01:48 82° SSW 04:05:56 10° ESE visible
25 Jun ? 00:31:33 26° NNE 00:31:33 26° NNE 00:34:13 10° ENE visible
25 Jun ? 02:07:29 10° NW 02:11:23 38° NNE 02:15:16 10° E visible
25 Jun ? 03:47:37 10° WNW 03:51:44 65° SSW 03:55:50 10° SE visible
25 Jun ? 20:55:51 10° SW 20:59:42 40° SE 21:00:56 31° ESE visible
25 Jun ? 22:35:51 10° W 22:36:35 15° W 22:36:35 15° W visible
26 Jun ? 00:22:18 21° NE 00:22:18 21° NE 00:24:15 10° ENE visible
26 Jun ? 01:57:43 12° NW 02:01:24 43° NNE 02:05:22 10° E visible
26 Jun ? 03:37:37 10° WNW 03:41:39 50° SSW 03:45:39 10° SE visible
26 Jun ? 20:45:37 10° SW 20:49:36 52° SSE 20:53:37 10° ENE visible
26 Jun ? 22:25:57 10° W 22:29:52 42° NNW 22:30:42 37° NNE visible
27 Jun?00:14:29ENE00:14:29ENE00:06:14WNWvisible
27 Jun ? 01:50:03 35° NNW 01:51:25 50° NNE 01:55:27 10° E visible
27 Jun ? 03:27:41 10° WNW 03:31:33 38° SW 03:35:24 10° SSE visible
27 Jun ? 20:35:27 10° SW 20:39:31 68° SSE 20:43:38 10° ENE visible
27 Jun ? 22:16:03 10° W 22:19:53 37° NNW 22:22:40 17° NE visible
27 Jun ? 23:57:04 10° WNW 23:58:04 16° NW 23:58:04 16° NW visible
28 Jun ? 01:44:28 17° E 01:44:28 17° E 01:45:31 10° ESE visible
28 Jun ? 03:20:08 24° WSW 03:21:26 29° SW 03:25:02 10° SSE visible
28 Jun ? 20:25:22 10° WSW 20:29:28 86° SSE 20:33:36 10° ENE visible
28 Jun ? 22:06:10 10° WNW 22:09:56 33° N 22:13:20 12° NE visible
28 Jun ? 23:47:05 10° NW 23:48:41 20° NW 23:48:41 20° NW visible
29 Jun ? 20:15:20 10° WSW 20:19:25 77° NNW 20:23:33 10° ENE visible
29 Jun ? 21:56:17 10° WNW 21:59:59 31° N 22:03:34 11° NE visible
29 Jun ? 23:37:05 10° NW 23:38:54 22° NW 23:38:54 22° NW visible
30 Jun ? 20:05:20 10° WSW 20:09:23 63° NNW 20:13:29 10° ENE visible
30 Jun ? 21:46:24 10° WNW 21:50:02 29° N 21:53:39 10° ENE visible
30 Jun ? 23:27:03 10° NW 23:28:59 23° NW 23:28:59 23° NW visible
01 Jul ? 19:55:23 10° W 19:59:23 52° NNW 20:03:25 10° ENE visible
01 Jul ? 21:36:30 10° WNW 21:40:06 29° N 21:43:40 10° ENE visible
01 Jul ? 23:17:00 10° NW 23:19:00 25° NW 23:19:00 25° NW visible
02 Jul ? 19:45:27 10° W 19:49:23 44° NNW 19:53:21 10° NE visible
02 Jul ? 21:26:34 10° WNW 21:30:10 28° N 21:33:40 11° ENE visible
02 Jul ? 23:06:56 10° NW 23:09:00 26° NW 23:09:00 26° NW visible
03 Jul ? 21:16:38 10° WNW 21:20:13 29° N 21:23:40 11° ENE visible
03 Jul ? 22:56:53 10° WNW 22:59:00 28° NW 22:59:00 28° NW visible
